Вернуться в каталог

FENGYUN 1C DEB

АктивенSSO
NORAD 36733·DEBRIS·🇨🇳 China

Запущен May 10, 1999 с Taiyuan Satellite Launch Center

Loading…

Ближайшие Пролёты (ближайшие 24 часа)

TLE

УстаревающийSource: Space-Track

Эпоха: Sep 8, 2026, 11:03 UTC

1 36733U 99025EBF 26251.46054377  .00002167  00000-0  11571-2 0  9992
2 36733  99.3255 251.9695 0126165  96.8154 264.7388 14.10358713691386

Отслеживайте FENGYUN 1C DEB в реальном времени с AllMySat

Download on the App Store